| time (UTC) | temp F | wind direction | speed MPH | gust MPH | rain 1hr in | rain 24hr in | rain mn in | humidity % | barometer mb |
| 20260510071004 | 45 | 290 | 5.0 | 5.0 | 0.00 | 0.00 | 0.00 | 71 | 1007.6 |
| 20260510070504 | 45 | 290 | 5.0 | 5.0 | 0.00 | 0.00 | 0.00 | 72 | 1007.6 |
| 20260510070003 | 45 | 290 | 5.0 | 5.0 | 0.00 | 0.00 | 0.00 | 73 | 1007.6 |
| 20260510065504 | 45 | 290 | 5.0 | 5.0 | 0.00 | 0.00 | 0.00 | 75 | 1007.5 |
| 20260510065003 | 45 | 290 | 5.0 | 5.0 | 0.00 | 0.00 | 0.00 | 75 | 1007.5 |
| 20260510064503 | 45 | 290 | 5.0 | 5.0 | 0.00 | 0.00 | 0.00 | 75 | 1007.5 |
| 20260510064003 | 45 | 290 | 5.0 | 5.0 | 0.00 | 0.00 | 0.00 | 76 | 1007.4 |
| 20260510063503 | 45 | 290 | 5.0 | 5.0 | 0.00 | 0.00 | 0.00 | 76 | 1007.5 |
| 20260510063004 | 45 | 290 | 5.0 | 5.0 | 0.00 | 0.00 | 0.00 | 76 | 1007.3 |
| 20260510062503 | 45 | 290 | 5.0 | 5.0 | 0.00 | 0.00 | 0.00 | 77 | 1007.3 |
| 20260510062004 | 45 | 290 | 5.0 | 5.0 | 0.00 | 0.00 | 0.00 | 77 | 1007.2 |
| 20260510061504 | 45 | 280 | 5.0 | 5.0 | 0.00 | 0.00 | 0.00 | 77 | 1007.1 |
| 20260510061003 | 45 | 280 | 5.0 | 5.0 | 0.00 | 0.00 | 0.00 | 77 | 1007.1 |
| 20260510060005 | 45 | 300 | 7.0 | 7.0 | 0.00 | 0.00 | 0.00 | 77 | 1007.0 |
| 20260510055504 | 45 | 300 | 7.0 | 7.0 | 0.00 | 0.00 | 0.00 | 78 | 1006.8 |
| 20260510055003 | 46 | 300 | 7.0 | 8.0 | 0.00 | 0.00 | 0.00 | 76 | 1006.8 |
| 20260510054504 | 46 | 280 | 8.0 | 8.0 | 0.00 | 0.00 | 0.00 | 76 | 1006.8 |
| 20260510054003 | 46 | 280 | 8.0 | 8.0 | 0.00 | 0.00 | 0.00 | 76 | 1006.7 |
| 20260510053503 | 46 | 280 | 8.0 | 8.0 | 0.00 | 0.00 | 0.00 | 75 | 1006.7 |
| 20260510053003 | 46 | 280 | 8.0 | 8.0 | 0.00 | 0.00 | 0.00 | 76 | 1006.8 |
| 20260510052004 | 46 | 280 | 8.0 | 9.0 | 0.00 | 0.00 | 0.00 | 77 | 1006.4 |
| 20260510051503 | 46 | 310 | 9.0 | 9.0 | 0.00 | 0.00 | 0.00 | 77 | 1006.1 |
| 20260510051004 | 46 | 310 | 9.0 | 9.0 | 0.00 | 0.00 | 0.00 | 77 | 1006.4 |
| 20260510050503 | 46 | 310 | 9.0 | 9.0 | 0.00 | 0.00 | 0.00 | 79 | 1006.2 |
| 20260510050004 | 46 | 310 | 9.0 | 9.0 | 0.00 | 0.00 | 0.00 | 79 | 1006.1 |
| 20260510045503 | 46 | 310 | 9.0 | 9.0 | 0.00 | 0.00 | 0.00 | 80 | 1006.1 |
| 20260510045003 | 46 | 310 | 9.0 | 9.0 | 0.00 | 0.00 | 0.00 | 80 | 1005.9 |
| 20260510043504 | 46 | 310 | 9.0 | 9.0 | 0.00 | 0.00 | 0.00 | 84 | 1005.6 |
| 20260510043003 | 46 | 310 | 9.0 | 9.0 | 0.00 | 0.00 | 0.00 | 85 | 1005.5 |
| 20260510042503 | 46 | 310 | 9.0 | 9.0 | 0.00 | 0.00 | 0.00 | 86 | 1005.5 |
| 20260510042004 | 46 | 310 | 9.0 | 9.0 | 0.00 | 0.00 | 0.00 | 86 | 1005.5 |
| 20260510041003 | 46 | 300 | 7.0 | 7.0 | 0.00 | 0.00 | 0.00 | 85 | 1005.2 |
| 20260510040004 | 46 | 300 | 7.0 | 7.0 | 0.00 | 0.00 | 0.00 | 85 | 1005.1 |
| 20260510035004 | 47 | 300 | 7.0 | 7.0 | 0.00 | 0.00 | 0.00 | 85 | 1005.1 |
| 20260510034504 | 47 | 320 | 7.0 | 7.0 | 0.00 | 0.00 | 0.00 | 85 | 1005.0 |
| 20260510034004 | 47 | 320 | 7.0 | 7.0 | 0.00 | 0.00 | 0.00 | 84 | 1005.0 |
| 20260510033003 | 47 | 300 | 9.0 | 9.0 | 0.00 | 0.00 | 0.00 | 84 | 1005.1 |
| 20260510032503 | 48 | 300 | 9.0 | 9.0 | 0.00 | 0.00 | 0.00 | 84 | 1005.1 |
| 20260510031503 | 48 | 280 | 3.0 | 3.0 | 0.00 | 0.00 | 0.00 | 85 | 1005.1 |
| 20260510031004 | 48 | 280 | 3.0 | 3.0 | 0.00 | 0.00 | 0.00 | 84 | 1005.0 |
| 20260510030503 | 48 | 280 | 3.0 | 3.0 | 0.00 | 0.00 | 0.00 | 85 | 1005.1 |
| 20260510025504 | 48 | 280 | 3.0 | 3.0 | 0.00 | 0.00 | 0.00 | 87 | 1005.0 |
| 20260510025003 | 47 | 280 | 3.0 | 3.0 | 0.00 | 0.00 | 0.00 | 91 | 1004.9 |
| 20260510024504 | 47 | 280 | 3.0 | 3.0 | 0.00 | 0.00 | 0.00 | 96 | 1004.9 |
| 20260510024003 | 47 | 280 | 3.0 | 3.0 | 0.00 | 0.00 | 0.00 | 96 | 1004.8 |
| 20260510023503 | 47 | 280 | 3.0 | 3.0 | 0.00 | 0.00 | 0.00 | 96 | 1004.6 |
| 20260510023004 | 47 | 280 | 3.0 | 3.0 | 0.00 | 0.00 | 0.00 | 96 | 1004.6 |
| 20260510022003 | 46 | 280 | 3.0 | 7.0 | 0.00 | 0.00 | 0.00 | 96 | 1004.3 |
| 20260510021503 | 46 | 170 | 7.0 | 7.0 | 0.00 | 0.00 | 0.00 | 96 | 1004.3 |
| 20260510021003 | 46 | 170 | 7.0 | 7.0 | 0.00 | 0.00 | 0.00 | 96 | 1004.2 |
| 20260510020504 | 46 | 170 | 7.0 | 7.0 | 0.00 | 0.00 | 0.00 | 96 | 1004.2 |
| 20260510020004 | 46 | 170 | 7.0 | 7.0 | 0.00 | 0.00 | 0.00 | 96 | 1004.1 |
| 20260510015504 | 46 | 170 | 7.0 | 7.0 | 0.00 | 0.00 | 0.00 | 96 | 1003.8 |
| 20260510015003 | 46 | 170 | 7.0 | 7.0 | 0.00 | 0.00 | 0.00 | 96 | 1003.9 |
| 20260510014503 | 46 | 170 | 7.0 | 7.0 | 0.00 | 0.00 | 0.00 | 95 | 1003.7 |
| 20260510014004 | 46 | 170 | 7.0 | 7.0 | 0.00 | 0.00 | 0.00 | 95 | 1003.7 |
| 20260510013503 | 46 | 170 | 7.0 | 7.0 | 0.00 | 0.00 | 0.00 | 95 | 1003.6 |
| 20260510012504 | 46 | 170 | 7.0 | 7.0 | 0.00 | 0.00 | 0.00 | 95 | 1003.2 |
| 20260510012003 | 46 | 170 | 7.0 | 7.0 | 0.00 | 0.00 | 0.00 | 95 | 1003.3 |
| 20260510011503 | 46 | 200 | 6.0 | 6.0 | 0.00 | 0.00 | 0.00 | 95 | 1003.3 |
| 20260510011003 | 46 | 200 | 6.0 | 6.0 | 0.00 | 0.00 | 0.00 | 95 | 1003.2 |
| 20260510010003 | 46 | 200 | 6.0 | 6.0 | 0.00 | 0.00 | 0.00 | 94 | 1003.2 |
| 20260510005003 | 46 | 200 | 6.0 | 7.0 | 0.00 | 0.00 | 0.00 | 95 | 1003.0 |
| 20260510004503 | 46 | 220 | 7.0 | 7.0 | 0.00 | 0.00 | 0.00 | 94 | 1002.9 |
| 20260510004004 | 47 | 220 | 7.0 | 7.0 | 0.00 | 0.00 | 0.00 | 94 | 1002.8 |
| 20260510003504 | 47 | 220 | 7.0 | 7.0 | 0.00 | 0.00 | 0.00 | 94 | 1002.7 |
| 20260510003004 | 47 | 220 | 7.0 | 7.0 | 0.00 | 0.00 | 0.00 | 93 | 1002.6 |
| 20260510002503 | 47 | 220 | 7.0 | 7.0 | 0.00 | 0.00 | 0.00 | 93 | 1002.6 |
| 20260510002003 | 48 | 220 | 7.0 | 7.0 | 0.00 | 0.00 | 0.00 | 92 | 1002.6 |
| 20260510001503 | 48 | 190 | 6.0 | 6.0 | 0.00 | 0.00 | 0.00 | 91 | 1002.6 |
| 20260510000503 | 48 | 190 | 6.0 | 6.0 | 0.00 | 0.00 | 0.00 | 90 | 1002.2 |
| 20260509235503 | 48 | 190 | 6.0 | 6.0 | 0.00 | 0.00 | 0.00 | 90 | 1001.9 |
| 20260509235004 | 48 | 190 | 6.0 | 6.0 | 0.00 | 0.00 | 0.00 | 89 | 1001.9 |
| 20260509234503 | 49 | 190 | 6.0 | 6.0 | 0.00 | 0.00 | 0.00 | 89 | 1001.8 |
| 20260509234003 | 50 | 190 | 6.0 | 6.0 | 0.00 | 0.00 | 0.00 | 87 | 1001.7 |
| 20260509233503 | 51 | 190 | 6.0 | 6.0 | 0.00 | 0.00 | 0.00 | 86 | 1001.6 |
| 20260509233004 | 52 | 190 | 6.0 | 6.0 | 0.00 | 0.00 | 0.00 | 86 | 1001.3 |
| 20260509232504 | 54 | 190 | 6.0 | 6.0 | 0.00 | 0.00 | 0.00 | 85 | 1001.3 |
| 20260509232004 | 54 | 190 | 6.0 | 8.0 | 0.00 | 0.00 | 0.00 | 83 | 1001.3 |
| 20260509231504 | 56 | 170 | 8.0 | 8.0 | 0.00 | 0.00 | 0.00 | 80 | 1001.4 |
| 20260509231003 | 58 | 170 | 8.0 | 8.0 | 0.00 | 0.00 | 0.00 | 76 | 1001.4 |
| 20260509230503 | 60 | 170 | 8.0 | 8.0 | 0.00 | 0.00 | 0.00 | 79 | 1001.5 |
| 20260509230004 | 54 | 170 | 8.0 | 8.0 | 0.00 | 0.00 | 0.00 | 95 | 1001.6 |
| 20260509225503 | 48 | 170 | 8.0 | 8.0 | 0.00 | 0.00 | 0.00 | 96 | 1001.5 |
| 20260509225004 | 47 | 170 | 8.0 | 8.0 | 0.00 | 0.00 | 0.00 | 96 | 1002.0 |
| 20260509224504 | 47 | 190 | 5.0 | 5.0 | 0.00 | 0.00 | 0.00 | 96 | 1002.0 |
| 20260509223503 | 48 | 190 | 5.0 | 8.0 | 0.00 | 0.00 | 0.00 | 96 | 1002.0 |
| 20260509223003 | 48 | 130 | 8.0 | 8.0 | 0.00 | 0.00 | 0.00 | 96 | 1001.8 |
| 20260509222504 | 47 | 130 | 8.0 | 8.0 | 0.00 | 0.00 | 0.00 | 95 | 1002.2 |
| 20260509222004 | 47 | 130 | 8.0 | 8.0 | 0.00 | 0.00 | 0.00 | 94 | 1002.1 |
| 20260509221503 | 47 | 150 | 7.0 | 7.0 | 0.00 | 0.00 | 0.00 | 93 | 1001.9 |
| 20260509221005 | 47 | 150 | 7.0 | 7.0 | 0.00 | 0.00 | 0.00 | 92 | 1001.5 |
| 20260509220503 | 47 | 150 | 7.0 | 9.0 | 0.00 | 0.00 | 0.00 | 91 | 1001.7 |
| 20260509220004 | 47 | 120 | 9.0 | 9.0 | 0.00 | 0.00 | 0.00 | 90 | 1002.0 |
| 20260509215503 | 47 | 120 | 9.0 | 9.0 | 0.00 | 0.00 | 0.00 | 89 | 1002.0 |
| 20260509215003 | 47 | 120 | 9.0 | 9.0 | 0.00 | 0.00 | 0.00 | 89 | 1002.1 |
| 20260509214504 | 47 | 120 | 9.0 | 9.0 | 0.00 | 0.00 | 0.00 | 89 | 1002.2 |
| 20260509214003 | 47 | 120 | 9.0 | 9.0 | 0.00 | 0.00 | 0.00 | 89 | 1002.3 |
| 20260509213503 | 47 | 120 | 9.0 | 9.0 | 0.00 | 0.00 | 0.00 | 89 | 1002.4 |
| 20260509213004 | 47 | 120 | 9.0 | 9.0 | 0.00 | 0.00 | 0.00 | 89 | 1002.3 |
| 20260509212503 | 47 | 120 | 9.0 | 9.0 | 0.00 | 0.00 | 0.00 | 88 | 1002.3 |
| 20260509212004 | 48 | 120 | 9.0 | 10.0 | 0.00 | 0.00 | 0.00 | 88 | 1002.2 |
| 20260509211003 | 49 | 140 | 10.0 | 10.0 | 0.00 | 0.00 | 0.00 | 87 | 1001.8 |
| 20260509210503 | 49 | 140 | 10.0 | 10.0 | 0.00 | 0.00 | 0.00 | 88 | 1001.7 |
| 20260509210004 | 48 | 140 | 10.0 | 10.0 | 0.00 | 0.00 | 0.00 | 88 | 1001.7 |
| 20260509205003 | 48 | 140 | 10.0 | 10.0 | 0.00 | 0.00 | 0.00 | 88 | 1002.1 |
| 20260509204503 | 48 | 140 | 10.0 | 10.0 | 0.00 | 0.00 | 0.00 | 87 | 1002.5 |
| 20260509204003 | 49 | 140 | 10.0 | 10.0 | 0.00 | 0.00 | 0.00 | 88 | 1002.6 |
| 20260509203504 | 49 | 140 | 10.0 | 10.0 | 0.00 | 0.00 | 0.00 | 88 | 1002.6 |
| 20260509203004 | 49 | 140 | 10.0 | 10.0 | 0.00 | 0.00 | 0.00 | 88 | 1002.7 |
| 20260509202504 | 49 | 140 | 10.0 | 10.0 | 0.00 | 0.00 | 0.00 | 87 | 1002.3 |
| 20260509202003 | 50 | 140 | 10.0 | 23.0 | 0.00 | 0.00 | 0.00 | 87 | 1002.3 |
| 20260509201503 | 50 | 130 | 14.0 | 23.0 | 0.00 | 0.00 | 0.00 | 87 | 1002.4 |
| 20260509201003 | 49 | 130 | 14.0 | 23.0 | 0.00 | 0.00 | 0.00 | 87 | 1002.5 |
| 20260509200504 | 49 | 130 | 14.0 | 23.0 | 0.00 | 0.00 | 0.00 | 87 | 1002.6 |
| 20260509200004 | 50 | 130 | 14.0 | 23.0 | 0.00 | 0.00 | 0.00 | 86 | 1002.7 |
| 20260509195504 | 50 | 130 | 14.0 | 23.0 | 0.00 | 0.00 | 0.00 | 86 | 1002.8 |
| 20260509195004 | 51 | 130 | 14.0 | 23.0 | 0.00 | 0.00 | 0.00 | 85 | 1002.8 |
| 20260509194503 | 51 | 130 | 14.0 | 23.0 | 0.00 | 0.00 | 0.00 | 84 | 1002.8 |
| 20260509194004 | 51 | 130 | 14.0 | 23.0 | 0.00 | 0.00 | 0.00 | 85 | 1003.0 |
| 20260509193503 | 51 | 130 | 14.0 | 23.0 | 0.00 | 0.00 | 0.00 | 85 | 1003.0 |
| 20260509193003 | 51 | 130 | 14.0 | 23.0 | 0.00 | 0.00 | 0.00 | 84 | 1003.0 |
| 20260509192004 | 53 | 130 | 14.0 | 23.0 | 0.00 | 0.00 | 0.00 | 83 | 1003.0 |
| 20260509191004 | 54 | 150 | 12.0 | 12.0 | 0.00 | 0.00 | 0.00 | 82 | 1003.0 |
| 20260509190503 | 54 | 150 | 12.0 | 12.0 | 0.00 | 0.00 | 0.00 | 81 | 1003.0 |
| 20260509190004 | 54 | 150 | 12.0 | 12.0 | 0.00 | 0.00 | 0.00 | 82 | 1003.1 |
| 20260509185504 | 54 | 150 | 12.0 | 12.0 | 0.00 | 0.00 | 0.00 | 83 | 1003.1 |
| 20260509185004 | 54 | 150 | 12.0 | 12.0 | 0.00 | 0.00 | 0.00 | 82 | 1003.2 |
| 20260509184504 | 54 | 150 | 12.0 | 12.0 | 0.00 | 0.00 | 0.00 | 82 | 1003.0 |
| 20260509184003 | 54 | 150 | 12.0 | 12.0 | 0.00 | 0.00 | 0.00 | 82 | 1003.0 |
| 20260509183504 | 54 | 150 | 12.0 | 12.0 | 0.00 | 0.00 | 0.00 | 82 | 1003.0 |
| 20260509183004 | 54 | 150 | 12.0 | 12.0 | 0.00 | 0.00 | 0.00 | 82 | 1003.4 |
| 20260509182503 | 55 | 150 | 12.0 | 12.0 | 0.00 | 0.00 | 0.00 | 81 | 1003.4 |
| 20260509182004 | 55 | 150 | 12.0 | 12.0 | 0.00 | 0.00 | 0.00 | 81 | 1003.5 |
| 20260509181503 | 55 | 150 | 8.0 | 8.0 | 0.00 | 0.00 | 0.00 | 80 | 1003.7 |
| 20260509180503 | 55 | 150 | 8.0 | 8.0 | 0.00 | 0.00 | 0.00 | 83 | 1003.6 |
| 20260509175504 | 55 | 150 | 8.0 | 8.0 | 0.00 | 0.00 | 0.00 | 84 | 1003.7 |
| 20260509175004 | 55 | 150 | 8.0 | 8.0 | 0.00 | 0.00 | 0.00 | 83 | 1003.8 |
| 20260509174503 | 55 | 150 | 8.0 | 8.0 | 0.00 | 0.00 | 0.00 | 83 | 1004.0 |
| 20260509174003 | 55 | 150 | 8.0 | 8.0 | 0.00 | 0.00 | 0.00 | 81 | 1004.0 |
| 20260509172503 | 55 | 150 | 8.0 | 8.0 | 0.00 | 0.00 | 0.00 | 79 | 1004.2 |
| 20260509172003 | 56 | 150 | 8.0 | 9.0 | 0.00 | 0.00 | 0.00 | 80 | 1004.3 |
| 20260509171504 | 56 | 180 | 9.0 | 9.0 | 0.00 | 0.00 | 0.00 | 80 | 1004.3 |
| 20260509171004 | 56 | 180 | 9.0 | 9.0 | 0.00 | 0.00 | 0.00 | 81 | 1004.3 |
| 20260509170504 | 56 | 180 | 9.0 | 9.0 | 0.00 | 0.00 | 0.00 | 80 | 1004.3 |
| 20260509170004 | 55 | 180 | 9.0 | 9.0 | 0.00 | 0.00 | 0.00 | 79 | 1004.5 |
| 20260509165504 | 55 | 180 | 9.0 | 9.0 | 0.00 | 0.00 | 0.00 | 80 | 1004.5 |
| 20260509165004 | 55 | 180 | 9.0 | 9.0 | 0.00 | 0.00 | 0.00 | 78 | 1004.5 |
| 20260509164503 | 55 | 180 | 9.0 | 9.0 | 0.00 | 0.00 | 0.00 | 79 | 1004.5 |
| 20260509164004 | 55 | 180 | 9.0 | 9.0 | 0.00 | 0.00 | 0.00 | 81 | 1004.6 |
| 20260509163503 | 55 | 180 | 9.0 | 9.0 | 0.00 | 0.00 | 0.00 | 80 | 1004.6 |
| 20260509162503 | 54 | 180 | 7.0 | 7.0 | 0.00 | 0.00 | 0.00 | 80 | 1004.6 |
| 20260509162004 | 54 | 180 | 7.0 | 8.0 | 0.00 | 0.00 | 0.00 | 81 | 1004.8 |
| 20260509161503 | 54 | 180 | 8.0 | 8.0 | 0.00 | 0.00 | 0.00 | 80 | 1004.8 |
| 20260509161004 | 53 | 180 | 8.0 | 8.0 | 0.00 | 0.00 | 0.00 | 79 | 1004.8 |
| 20260509160503 | 53 | 180 | 8.0 | 8.0 | 0.00 | 0.00 | 0.00 | 80 | 1004.9 |
| 20260509160004 | 53 | 180 | 8.0 | 8.0 | 0.00 | 0.00 | 0.00 | 81 | 1005.0 |
| 20260509155003 | 53 | 180 | 8.0 | 9.0 | 0.00 | 0.00 | 0.00 | 82 | 1005.1 |
| 20260509154504 | 52 | 170 | 9.0 | 9.0 | 0.00 | 0.00 | 0.00 | 80 | 1005.1 |
| 20260509154003 | 53 | 170 | 9.0 | 9.0 | 0.00 | 0.00 | 0.00 | 80 | 1005.0 |
| 20260509153503 | 53 | 170 | 9.0 | 9.0 | 0.00 | 0.00 | 0.00 | 80 | 1004.9 |
| 20260509152503 | 53 | 170 | 9.0 | 9.0 | 0.00 | 0.00 | 0.00 | 82 | 1004.9 |
| 20260509152004 | 53 | 170 | 9.0 | 9.0 | 0.00 | 0.00 | 0.00 | 83 | 1005.0 |
| 20260509151003 | 52 | 180 | 8.0 | 8.0 | 0.00 | 0.00 | 0.00 | 82 | 1005.5 |
| 20260509150504 | 51 | 180 | 8.0 | 8.0 | 0.00 | 0.00 | 0.00 | 82 | 1005.5 |
| 20260509150004 | 51 | 180 | 8.0 | 8.0 | 0.00 | 0.00 | 0.00 | 82 | 1005.5 |
| 20260509145504 | 51 | 180 | 8.0 | 8.0 | 0.00 | 0.00 | 0.00 | 83 | 1005.8 |
| 20260509145004 | 51 | 180 | 8.0 | 8.0 | 0.00 | 0.00 | 0.00 | 83 | 1006.0 |
| 20260509144504 | 51 | 180 | 8.0 | 8.0 | 0.00 | 0.00 | 0.00 | 82 | 1005.9 |
| 20260509144003 | 51 | 180 | 8.0 | 8.0 | 0.00 | 0.00 | 0.00 | 82 | 1005.9 |
| 20260509143003 | 50 | 180 | 8.0 | 8.0 | 0.00 | 0.00 | 0.00 | 81 | 1005.9 |
| 20260509142004 | 49 | 180 | 8.0 | 8.0 | 0.00 | 0.00 | 0.00 | 81 | 1005.8 |
| 20260509141504 | 49 | 150 | 5.0 | 5.0 | 0.00 | 0.00 | 0.00 | 81 | 1005.8 |
| 20260509141004 | 49 | 150 | 5.0 | 5.0 | 0.00 | 0.00 | 0.00 | 80 | 1005.8 |
| 20260509140504 | 50 | 150 | 5.0 | 5.0 | 0.00 | 0.00 | 0.00 | 81 | 1005.8 |
| 20260509140005 | 49 | 150 | 5.0 | 5.0 | 0.00 | 0.00 | 0.00 | 81 | 1005.9 |
| 20260509135503 | 49 | 150 | 5.0 | 5.0 | 0.00 | 0.00 | 0.00 | 82 | 1005.8 |
| 20260509135003 | 49 | 150 | 5.0 | 5.0 | 0.00 | 0.00 | 0.00 | 81 | 1006.0 |
| 20260509134504 | 49 | 150 | 5.0 | 5.0 | 0.00 | 0.00 | 0.00 | 80 | 1006.0 |
| 20260509133004 | 48 | 130 | 6.0 | 6.0 | 0.00 | 0.00 | 0.00 | 82 | 1006.1 |
| 20260509132503 | 48 | 130 | 6.0 | 6.0 | 0.00 | 0.00 | 0.00 | 81 | 1006.2 |
| 20260509132003 | 48 | 130 | 6.0 | 6.0 | 0.00 | 0.00 | 0.00 | 80 | 1006.2 |
| 20260509131504 | 48 | 140 | 3.0 | 3.0 | 0.00 | 0.00 | 0.00 | 81 | 1006.2 |
| 20260509131004 | 47 | 140 | 3.0 | 3.0 | 0.00 | 0.00 | 0.00 | 80 | 1006.3 |
| 20260509130503 | 47 | 140 | 3.0 | 3.0 | 0.00 | 0.00 | 0.00 | 80 | 1006.2 |
| 20260509130004 | 46 | 140 | 3.0 | 3.0 | 0.00 | 0.00 | 0.00 | 79 | 1006.2 |
| 20260509125504 | 46 | 140 | 3.0 | 3.0 | 0.00 | 0.00 | 0.00 | 80 | 1006.2 |
| 20260509125004 | 45 | 140 | 3.0 | 3.0 | 0.00 | 0.00 | 0.00 | 79 | 1006.1 |
| 20260509124503 | 45 | 140 | 3.0 | 3.0 | 0.00 | 0.00 | 0.00 | 78 | 1006.1 |
| 20260509124003 | 45 | 140 | 3.0 | 3.0 | 0.00 | 0.00 | 0.00 | 79 | 1006.2 |
| 20260509123503 | 45 | 140 | 3.0 | 3.0 | 0.00 | 0.00 | 0.00 | 78 | 1006.2 |
| 20260509122504 | 44 | 140 | 3.0 | 3.0 | 0.00 | 0.00 | 0.00 | 78 | 1006.2 |
| 20260509121504 | 43 | 80 | 6.0 | 6.0 | 0.00 | 0.00 | 0.00 | 78 | 1006.3 |
| 20260509121003 | 42 | 80 | 6.0 | 6.0 | 0.00 | 0.00 | 0.00 | 78 | 1006.3 |
| 20260509120003 | 42 | 80 | 6.0 | 6.0 | 0.00 | 0.00 | 0.00 | 78 | 1006.3 |
| 20260509115503 | 42 | 80 | 6.0 | 6.0 | 0.00 | 0.00 | 0.00 | 78 | 1006.2 |
| 20260509115004 | 42 | 80 | 6.0 | 6.0 | 0.00 | 0.00 | 0.00 | 79 | 1006.2 |
| 20260509114504 | 41 | 80 | 6.0 | 6.0 | 0.00 | 0.00 | 0.00 | 78 | 1006.0 |
| 20260509114004 | 41 | 80 | 6.0 | 6.0 | 0.00 | 0.00 | 0.00 | 79 | 1006.1 |
| 20260509113003 | 40 | 80 | 6.0 | 6.0 | 0.00 | 0.00 | 0.00 | 79 | 1006.3 |
| 20260509112503 | 40 | 80 | 6.0 | 6.0 | 0.00 | 0.00 | 0.00 | 79 | 1006.3 |
| 20260509112004 | 39 | 80 | 6.0 | 6.0 | 0.00 | 0.00 | 0.00 | 80 | 1006.4 |
| 20260509111504 | 39 | 30 | 2.0 | 2.0 | 0.00 | 0.00 | 0.00 | 81 | 1006.3 |
| 20260509111004 | 38 | 30 | 2.0 | 2.0 | 0.00 | 0.00 | 0.00 | 81 | 1006.3 |
| 20260509110503 | 38 | 30 | 2.0 | 2.0 | 0.00 | 0.00 | 0.00 | 81 | 1006.4 |
| 20260509105504 | 38 | 30 | 2.0 | 2.0 | 0.00 | 0.00 | 0.00 | 81 | 1006.5 |
| 20260509105004 | 38 | 30 | 2.0 | 2.0 | 0.00 | 0.00 | 0.00 | 81 | 1006.5 |
| 20260509104004 | 38 | 30 | 2.0 | 2.0 | 0.00 | 0.00 | 0.00 | 81 | 1006.6 |
| 20260509103503 | 38 | 30 | 2.0 | 2.0 | 0.00 | 0.00 | 0.00 | 81 | 1006.5 |
| 20260509103003 | 38 | 30 | 2.0 | 2.0 | 0.00 | 0.00 | 0.00 | 82 | 1006.5 |
| 20260509102504 | 38 | 30 | 2.0 | 2.0 | 0.00 | 0.00 | 0.00 | 82 | 1006.5 |
| 20260509102003 | 38 | 30 | 2.0 | 3.0 | 0.00 | 0.00 | 0.00 | 82 | 1006.5 |
| 20260509101504 | 38 | 40 | 3.0 | 3.0 | 0.00 | 0.00 | 0.00 | 82 | 1006.6 |
| 20260509101004 | 38 | 40 | 3.0 | 3.0 | 0.00 | 0.00 | 0.00 | 82 | 1006.6 |
| 20260509100504 | 37 | 40 | 3.0 | 3.0 | 0.00 | 0.00 | 0.00 | 82 | 1006.6 |
| 20260509100005 | 37 | 40 | 3.0 | 3.0 | 0.00 | 0.00 | 0.00 | 82 | 1006.6 |
| 20260509095504 | 37 | 40 | 3.0 | 3.0 | 0.00 | 0.00 | 0.00 | 81 | 1006.5 |
| 20260509094504 | 37 | 40 | 3.0 | 3.0 | 0.00 | 0.00 | 0.00 | 82 | 1006.6 |
| 20260509094004 | 37 | 40 | 3.0 | 3.0 | 0.00 | 0.00 | 0.00 | 82 | 1006.5 |
| 20260509093504 | 37 | 40 | 3.0 | 3.0 | 0.00 | 0.00 | 0.00 | 82 | 1006.6 |
| 20260509093004 | 37 | 40 | 3.0 | 3.0 | 0.00 | 0.00 | 0.00 | 82 | 1006.6 |
| 20260509092504 | 37 | 40 | 3.0 | 3.0 | 0.00 | 0.00 | 0.00 | 83 | 1006.6 |
| 20260509092004 | 37 | 40 | 3.0 | 3.0 | 0.00 | 0.00 | 0.00 | 82 | 1006.5 |
| 20260509091503 | 37 | 110 | 3.0 | 3.0 | 0.00 | 0.00 | 0.00 | 83 | 1006.6 |
| 20260509091003 | 37 | 110 | 3.0 | 3.0 | 0.00 | 0.00 | 0.00 | 84 | 1006.6 |
| 20260509090003 | 37 | 110 | 3.0 | 3.0 | 0.00 | 0.00 | 0.00 | 83 | 1006.4 |
| 20260509085504 | 37 | 110 | 3.0 | 3.0 | 0.00 | 0.00 | 0.00 | 84 | 1006.5 |
| 20260509085004 | 37 | 110 | 3.0 | 3.0 | 0.00 | 0.00 | 0.00 | 84 | 1006.5 |
| 20260509084504 | 37 | 110 | 3.0 | 3.0 | 0.00 | 0.00 | 0.00 | 84 | 1006.6 |
| 20260509084004 | 37 | 110 | 3.0 | 3.0 | 0.00 | 0.00 | 0.00 | 84 | 1006.6 |
| 20260509083504 | 37 | 110 | 3.0 | 3.0 | 0.00 | 0.00 | 0.00 | 84 | 1006.7 |
| 20260509082504 | 36 | 110 | 3.0 | 3.0 | 0.00 | 0.00 | 0.00 | 84 | 1006.8 |
| 20260509082004 | 37 | 110 | 3.0 | 3.0 | 0.00 | 0.00 | 0.00 | 84 | 1006.7 |
| 20260509081503 | 37 | 90 | 3.0 | 3.0 | 0.00 | 0.00 | 0.00 | 84 | 1006.8 |
| 20260509081004 | 37 | 90 | 3.0 | 3.0 | 0.00 | 0.00 | 0.00 | 84 | 1006.9 |
| 20260509080004 | 36 | 90 | 3.0 | 3.0 | 0.00 | 0.00 | 0.00 | 85 | 1007.0 |
| 20260509075504 | 37 | 90 | 3.0 | 3.0 | 0.00 | 0.00 | 0.00 | 84 | 1007.0 |
| 20260509075004 | 37 | 90 | 3.0 | 3.0 | 0.00 | 0.00 | 0.00 | 84 | 1007.1 |
| 20260509074003 | 37 | 90 | 3.0 | 3.0 | 0.00 | 0.00 | 0.00 | 84 | 1007.1 |
| 20260509073504 | 37 | 90 | 3.0 | 3.0 | 0.00 | 0.00 | 0.00 | 84 | 1007.1 |
| 20260509073004 | 37 | 90 | 3.0 | 3.0 | 0.00 | 0.00 | 0.00 | 84 | 1007.0 |
| 20260509072503 | 37 | 90 | 3.0 | 3.0 | 0.00 | 0.00 | 0.00 | 84 | 1007.0 |
| 20260509072003 | 37 | 90 | 3.0 | 3.0 | 0.00 | 0.00 | 0.00 | 84 | 1007.0 |